Location: Emblem
(62.4273°N, 6.4710°E)
Time: 04:19:55
(UTC+02:00)

S-56A Canister/Altair - Pass Details

Date: 06 March 2024
Orbit: 639 x 2488 km, 38.9° (Epoch: 17 April)

Event Time Altitude Azimuth Distance (km) Brightness Sun altitude
Rises 09:24:24 0° 232° (SW) 4,782 11.4 12.2°
Reaches altitude 10° 09:31:55 10° 195° (SSW) 3,168 11.1 12.9°
Maximum altitude 09:32:37 10° 189° (S) 3,098 11.1 12.9°
Drops below altitude 10° 09:33:18 10° 184° (S) 3,051 11.2 13.0°
Sets 09:39:04 0° 142° (SE) 3,526 12.8 13.5°
